DIAMANT DEB, 2684

Orbit data source: Space-Track

DIAMANT DEB, 2684 is space debris in LEO originally from a launch on Wed, 15 Feb 1967 UTC launched from the Hamma Guira Space Track Range (HGSTR). Debris objects in space refer to the collection of defunct objects orbiting the Earth. Examples of debris include non-operational satellites, rocket bodies, and fragments generated from explosions, collisions, or faulty payload assembly.

Loading next visibility...
Identifier
2684, 1967-014C
Orbit
LEO
Country
Flag of FRFR
Related business
Manufacturer
Unknown
Mission
Spacecraft
Bus & Motor
Unknown
Mass
Unknown
Launch date (UTC)
1967-02-15 (59 years ago)
Launch vehicle
Unknown
Launch site
Hamma Guira Space Track Range (HGSTR)
Object type
Payload
Rocket body
Debris
Shape & HBR
Unknown shape, 0.1 m
Radar Cross Section
Small (<0.1 m²)

Expand to show TLE details & history
Last TLE update: 2 days ago

TLE from 2 days ago
0 DIAMANT DEB
1 02684U 67014C   25308.96073065  .00002705  00000-0  66154-3 0  9991
2 02684  39.9573  44.2465 0447278 106.8950 258.1336 14.07174037909363
Epoch: 2025-11-04T23:03Z
TLE epoch observation values (Epoch: 2025-11-04T23:03:27.128Z)
Latitude
-0.00002°
Longitude
13.94319°
Altitude
948.85 km
Speed
7.338 km/s
True Right ascension
02h 56m 59s
True Declination
0° 00' 00"
Sunlit
Object was in full shadow at epoch
Visualization orbit readout
Latitude
Unknown
Longitude
Unknown
Altitude
Unknown
Speed
Unknown
Apparent Right ascension
Unknown
Apparent Declination
Unknown
Sunlit
N/A
Visualization observer readout
Local Sidereal Time
14:04:47
Azimuth
Unknown
Elevation
Unknown
Doppler factor
Unknown
Orbital elements
Apogee altitude
1,195.643 km
Perigee altitude
547.132 km
Semi-major axis
7,249.525 km
Eccentricity
0.04473
Inclination
39.9573°
RAAN
44.2465°
Arg. of periapsis
106.895°
True anomaly
253.18091°
Mean anomaly
258.1336°
Eccentric anomaly
255.65083°
Mean motion
3.51624 °/min
Orbital period
102.38 mins
BSTAR
0.00066154
Loading maneuver chart data...
Computing Atmospheric mass density...
Loading historical data...
Loading historical data...
Loading historical data...
Loading historical data...
Loading historical data...
Loading historical data...
Loading historical data...

Documentation

Showing up to 5 results
|